Temp
62 62 62 62 61 61 61 61 60 60 59 59 59 59 59 59 58 74 74 75 75 66 65 82 81 82 83 80 83 82 69 67 71 74 78 85 77 86 87 81 84 85 84 87 91
63 63 63 62 61 60 60 60 59 59 59 59 59 59 59 58 66 73 73 66 66 66 75 77 75 79 76 77 78 74 68 71 80 80 79 82 80 80 80 79 79 82 87 89 88
62 63 63 62 61 60 60 59 59 59 59 58 58 59 58 61 69 76 66 66 65 68 81 82 81 77 72 78 76 74 66 77 80 82 80 77 78 83 78 74 79 78 82 85 86
60 61 61 62 62 61 60 58 58 59 58 58 58 59 58 65 58 78 68 66 66 77 79 78 76 71 69 70 77 68 74 75 78 80 77 74 79 76 78 78 84 84 84 85 84
59 60 60 61 62 61 59 58 58 58 58 57 58 58 63 61 65 80 66 67 75 76 76 75 71 71 66 72 75 71 74 76 79 77 76 77 74 75 76 82 85 85 84 82 83
59 59 59 60 60 61 59 58 57 57 57 57 58 57 58 53 81 84 79 77 78 76 75 76 73 76 70 69 69 74 74 74 76 76 76 71 73 75 77 82 81 82 82 82 82
58 58 58 59 59 60 59 57 56 56 57 57 57 61 57 60 81 84 80 79 81 79 74 78 79 73 72 67 74 71 65 70 72 73 72 75 68 69 79 82 79 81 81 82 83
58 58 58 58 58 58 58 56 56 56 56 56 56 59 53 75 82 78 81 77 80 81 78 79 79 72 67 71 69 65 66 58 70 74 74 72 60 76 81 79 77 78 80 80 82
58 58 58 57 57 57 56 55 55 55 55 55 58 58 57 70 68 75 77 72 75 76 76 77 74 67 65 57 55 61 53 59 65 76 72 70 63 74 80 76 75 78 79 80 80
58 58 57 57 56 56 55 54 54 54 54 59 61 50 62 64 74 74 78 74 69 71 67 66 64 59 61 55 43 52 54 62 60 70 69 67 65 72 76 75 74 76 78 79 78
57 58 57 57 56 54 51 49 46 44 49 57 61 61 67 75 76 72 76 71 70 66 57 63 54 51 57 60 60 58 56 57 65 73 67 64 65 71 74 74 74 75 76 76 76
58 57 57 57 55 53 61 49 60 62 52 58 61 64 70 73 62 68 76 62 62 56 62 54 47 58 62 59 55 55 54 54 60 66 65 63 63 69 73 73 75 75 75 74 73
57 57 57 56 53 53 53 57 62 62 45 57 66 65 66 69 61 63 71 65 59 56 57 54 56 58 54 51 43 46 47 52 48 55 64 62 59 64 71 74 76 75 76 74 71
57 56 55 53 49 51 48 56 61 58 37 53 59 63 67 67 57 70 72 66 58 55 55 54 61 55 50 46 46 37 51 53 51 51 46 63 47 62 68 67 69 70 70 71 70
56 55 53 54 49 47 50 59 55 51 28 61 63 70 66 59 64 66 73 64 54 52 49 49 50 49 47 48 50 44 51 48 51 49 51 53 51 59 66 62 64 67 69 68 67
55 53 53 51 54 57 58 55 50 35 29 53 60 55 55 58 60 65 62 67 60 47 43 46 51 51 52 53 48 47 45 48 51 50 38 45 49 54 58 63 65 66 66 64 64
53 52 51 53 45 58 56 48 32 29 52 50 53 57 55 55 55 58 54 48 46 34 36 44 45 47 52 45 48 44 37 30 29 32 35 53 49 51 60 67 66 62 63 62 64
49 49 48 48 52 51 47 38 28 46 47 55 55 57 51 56 56 56 52 44 51 48 43 36 35 46 50 46 43 43 39 33 26 28 35 48 41 46 60 64 62 63 62 62 62
50 47 45 46 49 48 40 32 38 42 51 49 51 47 49 54 55 55 51 48 50 52 41 41 42 57 57 56 54 42 40 50 40 44 40 41 46 51 55 55 58 58 59 59 60
48 44 42 48 50 45 36 37 47 53 52 51 41 43 44 49 50 52 51 55 51 54 58 45 38 53 56 58 58 52 54 39 40 30 32 43 43 43 46 51 56 55 56 57 59
48 40 43 48 47 38 36 43 50 56 54 48 46 43 45 46 51 50 49 51 54 53 55 49 46 43 51 49 44 49 43 44 43 40 34 34 37 48 49 53 53 54 55 55 56
49 37 44 46 34 36 39 46 47 51 54 51 50 47 45 46 47 44 47 49 52 54 48 51 46 39 45 51 53 51 49 46 34 35 37 39 39 52 54 55 55 54 54 55 55
40 38 44 43 32 34 44 46 49 47 49 47 46 49 50 44 40 38 46 47 49 51 48 50 42 37 39 46 51 48 50 49 47 45 38 34 37 54 54 55 58 57 55 55 53
43 34 35 37 39 40 39 41 43 52 50 50 44 48 46 43 48 41 40 44 49 50 44 47 45 42 35 39 47 41 45 48 44 35 39 42 46 49 53 53 55 55 53 53 49
43 40 46 32 35 43 44 44 42 42 50 51 43 44 43 38 41 41 45 44 47 45 48 47 38 43 44 44 44 43 44 45 42 43 36 42 44 49 50 50 49 50 49 47 43
38 44 49 47 46 41 40 41 44 46 47 44 42 45 45 39 42 41 44 45 43 46 46 46 39 41 39 43 43 40 44 45 45 45 45 45 44 49 51 51 44 42 42 41 39
49 53 49 44 44 39 40 45 46 47 48 49 47 46 42 42 49 52 53 50 49 46 43 42 39 37 35 39 39 35 41 44 46 49 46 39 43 46 42 36 35 37 38 37 36
MSLP
1017.44 1017.55 1017.71 1017.54 1017.51 1017.71 1017.84 1017.94 1018.23 1018.06 1018.28 1018.18 1018.22 1018.04 1017.61 1017.01 1016.08 1014.48 1012.66 1011.93 1011.87 1012.49 1012.73 1011.48 1011.02 1010.47 1009.73 1008.46 1007.92 1007.64 1005.95 1003.73 1002.36 1001.50 1000.73 1001.10 1002.36 1002.58 1002.70 1003.27 1003.15 1003.47 1003.54 1003.55 1003.77
1017.06 1017.10 1017.23 1017.27 1017.19 1017.27 1017.46 1017.66 1017.76 1017.99 1018.12 1018.08 1018.01 1018.15 1017.72 1017.10 1015.49 1012.81 1011.62 1011.96 1012.39 1012.76 1012.23 1011.15 1010.26 1009.84 1009.12 1008.13 1007.48 1007.03 1004.90 1003.13 1002.40 1002.00 1001.66 1001.71 1002.22 1002.71 1002.93 1002.92 1003.18 1003.10 1003.36 1003.72 1004.06
1016.93 1017.00 1016.70 1016.82 1016.82 1016.85 1017.04 1017.21 1017.51 1017.59 1017.78 1017.66 1017.87 1017.81 1017.75 1016.99 1014.19 1011.02 1012.16 1012.25 1012.50 1012.71 1011.42 1010.66 1010.06 1009.55 1008.58 1007.66 1007.05 1006.20 1004.64 1003.43 1002.36 1002.39 1003.09 1002.92 1002.55 1002.65 1002.70 1002.62 1002.88 1002.92 1003.10 1003.48 1003.84
1016.70 1016.63 1016.43 1016.26 1016.40 1016.41 1016.55 1016.86 1017.14 1017.32 1017.41 1017.45 1017.73 1017.61 1017.49 1016.63 1013.19 1011.13 1012.14 1012.35 1012.45 1012.08 1011.30 1010.54 1010.00 1009.31 1008.31 1007.08 1006.66 1006.00 1005.07 1004.31 1003.54 1003.14 1003.32 1003.20 1003.14 1002.67 1002.59 1002.59 1002.86 1003.02 1003.41 1003.59 1003.61
1016.24 1016.27 1016.11 1015.88 1015.84 1016.17 1016.24 1016.55 1016.85 1017.13 1017.27 1017.46 1017.69 1017.62 1016.82 1014.97 1012.30 1011.31 1011.97 1012.45 1012.24 1011.64 1010.68 1010.10 1009.53 1008.96 1008.03 1006.82 1006.13 1005.28 1004.70 1004.33 1003.64 1003.74 1003.60 1003.45 1002.93 1002.66 1002.29 1002.50 1002.71 1002.86 1003.15 1003.51 1003.53
1015.75 1015.66 1015.57 1015.66 1015.43 1015.60 1015.99 1016.14 1016.72 1016.95 1017.24 1017.42 1017.42 1017.71 1016.72 1013.45 1010.82 1010.49 1011.23 1011.37 1011.13 1010.90 1010.25 1009.86 1009.24 1008.70 1007.99 1007.62 1006.80 1005.96 1004.70 1004.13 1003.83 1003.32 1003.30 1003.33 1002.83 1002.69 1002.10 1002.23 1002.24 1002.40 1002.65 1003.22 1003.27
1015.11 1014.92 1015.04 1015.01 1014.87 1015.23 1015.41 1015.96 1016.22 1016.82 1017.07 1017.27 1017.34 1017.03 1015.43 1012.28 1010.90 1010.20 1010.36 1009.98 1010.09 1009.88 1009.34 1009.30 1009.15 1008.95 1008.24 1007.61 1006.88 1006.44 1005.28 1004.24 1003.40 1003.20 1002.84 1002.91 1001.85 1001.49 1001.60 1001.44 1001.68 1001.71 1002.32 1002.71 1002.88
1014.36 1014.36 1014.23 1014.35 1014.25 1014.65 1015.01 1015.68 1016.19 1016.77 1017.17 1017.27 1017.23 1016.69 1013.38 1011.11 1010.52 1009.83 1009.56 1009.68 1009.90 1009.80 1009.62 1009.54 1009.21 1008.86 1008.67 1008.23 1007.05 1006.30 1005.18 1003.39 1002.32 1002.04 1001.74 1002.91 1000.05 1000.08 1000.07 1000.71 1000.88 1001.48 1001.74 1002.21 1002.93
1013.74 1013.50 1013.47 1013.54 1013.71 1014.15 1014.71 1015.70 1016.26 1016.78 1017.32 1017.28 1016.84 1015.66 1011.22 1010.65 1010.31 1009.71 1009.58 1009.29 1009.66 1009.93 1009.91 1010.04 1009.74 1009.05 1008.51 1008.05 1007.18 1005.81 1004.21 1002.79 1001.09 1000.67 1000.98 1001.12 1000.45 999.94 999.87 1000.94 1000.88 1000.85 1001.46 1001.89 1002.38
1012.89 1012.59 1012.50 1012.80 1013.06 1013.65 1014.58 1016.00 1016.59 1017.02 1017.16 1016.70 1015.97 1015.56 1010.90 1009.47 1008.56 1009.13 1008.95 1009.43 1009.26 1009.14 1009.66 1009.98 1009.80 1008.81 1007.45 1007.32 1005.60 1005.03 1004.09 1002.26 1001.19 1000.30 1000.56 1000.03 1000.24 1000.06 999.96 1000.50 1000.69 1000.82 1001.15 1001.45 1002.48
1011.80 1011.37 1011.70 1012.00 1012.56 1013.63 1014.79 1016.25 1016.75 1016.57 1015.67 1013.23 1011.72 1010.41 1008.78 1007.93 1008.81 1008.69 1008.40 1009.02 1008.85 1008.75 1008.46 1008.79 1008.99 1006.91 1006.94 1006.30 1006.13 1005.42 1004.50 1002.79 1001.02 999.80 1000.24 1000.32 999.82 999.27 999.72 1000.03 1000.03 1000.31 1000.90 1001.56 1002.63
1010.78 1010.81 1010.91 1011.41 1012.04 1013.19 1013.38 1014.05 1012.91 1012.81 1012.28 1011.60 1010.30 1008.86 1008.68 1008.86 1007.98 1007.71 1007.84 1008.62 1008.17 1007.72 1007.56 1008.27 1007.94 1006.78 1007.01 1007.18 1007.18 1006.65 1005.15 1004.00 1003.15 1001.66 1001.07 1000.69 999.77 999.30 998.96 999.06 999.44 999.70 1000.30 1001.79 1003.36
1009.86 1009.95 1010.44 1011.04 1012.11 1013.00 1012.98 1012.90 1013.22 1013.14 1012.86 1009.37 1007.77 1006.81 1007.27 1007.91 1006.71 1006.16 1007.24 1007.38 1007.39 1007.08 1007.07 1006.48 1006.39 1007.88 1007.97 1008.31 1009.22 1008.34 1007.17 1005.58 1005.23 1004.12 1002.06 1001.14 999.58 998.54 997.95 998.33 998.94 999.75 1000.59 1002.51 1003.81
1008.90 1009.24 1010.26 1011.33 1013.04 1012.43 1012.98 1013.16 1013.44 1013.85 1013.06 1007.45 1006.01 1005.19 1005.46 1006.80 1006.26 1005.73 1005.71 1006.11 1006.77 1006.58 1006.95 1006.66 1006.56 1007.60 1008.46 1008.43 1009.15 1009.21 1008.31 1006.90 1006.26 1004.60 1002.19 1000.72 998.59 997.05 996.48 998.15 999.39 1000.40 1001.91 1003.00 1004.47
1008.70 1009.18 1009.94 1010.46 1011.48 1012.16 1012.89 1013.31 1013.86 1014.15 1011.45 1005.44 1004.44 1006.01 1005.48 1005.66 1004.56 1004.02 1004.71 1005.63 1005.98 1006.93 1008.60 1006.70 1007.96 1007.98 1007.46 1007.55 1009.12 1009.06 1008.82 1008.29 1007.09 1005.22 1002.79 1000.79 999.29 997.09 997.12 998.38 999.75 1000.85 1002.17 1003.89 1005.28
1008.41 1009.51 1010.23 1011.21 1011.10 1011.46 1012.57 1013.44 1014.13 1013.45 1008.37 1005.11 1004.94 1005.81 1005.93 1005.20 1004.64 1004.25 1004.99 1005.53 1007.08 1008.19 1009.16 1008.78 1009.28 1008.60 1007.37 1008.56 1009.83 1010.34 1009.78 1008.19 1006.67 1005.23 1003.07 1001.79 999.94 997.66 997.54 997.81 999.53 1001.03 1002.82 1004.91 1005.75
1009.23 1010.01 1010.77 1010.81 1011.00 1011.60 1012.52 1013.46 1013.39 1010.58 1006.89 1004.60 1004.17 1004.99 1005.22 1004.24 1004.25 1004.16 1005.02 1006.12 1007.04 1008.54 1008.53 1008.61 1008.34 1008.93 1008.64 1008.81 1009.37 1010.06 1010.02 1008.49 1006.58 1004.98 1002.68 1000.93 1000.17 999.71 998.70 998.36 999.52 1001.64 1003.81 1005.64 1006.14
1010.52 1010.43 1011.33 1011.18 1011.45 1011.82 1012.28 1012.77 1010.67 1006.97 1005.56 1004.34 1004.33 1004.08 1004.25 1003.52 1003.28 1003.45 1004.22 1005.26 1006.28 1006.90 1007.04 1006.95 1006.70 1007.33 1007.67 1007.57 1007.51 1008.01 1008.62 1007.15 1005.16 1004.48 1003.05 1001.89 1001.03 1001.24 1001.10 1001.02 1002.62 1003.50 1004.95 1006.07 1006.72
1010.59 1011.31 1011.72 1012.16 1012.00 1011.98 1011.90 1010.81 1007.45 1006.89 1005.12 1004.90 1004.81 1004.19 1003.21 1002.92 1002.95 1002.99 1003.52 1004.30 1005.33 1006.26 1006.19 1005.52 1004.63 1004.33 1004.95 1005.50 1005.99 1006.76 1006.34 1005.77 1004.83 1004.31 1003.11 1002.37 1002.10 1002.51 1003.12 1003.49 1003.69 1004.83 1005.76 1006.53 1007.30
1010.94 1011.73 1012.24 1012.47 1012.32 1012.46 1011.72 1008.79 1006.09 1005.74 1005.57 1005.34 1005.11 1005.39 1003.42 1002.48 1002.75 1002.74 1002.88 1002.99 1004.14 1005.27 1005.37 1005.81 1004.88 1004.17 1004.21 1004.80 1004.71 1004.86 1005.08 1005.23 1005.41 1004.27 1002.68 1001.67 1001.80 1001.53 1003.55 1003.89 1004.45 1005.62 1006.47 1007.21 1007.85
1010.85 1011.58 1012.49 1012.54 1012.75 1012.37 1009.81 1007.21 1005.87 1005.39 1005.67 1005.43 1004.89 1004.90 1004.50 1003.72 1002.94 1002.66 1002.92 1004.11 1004.58 1005.04 1005.58 1005.85 1005.25 1005.17 1004.88 1004.34 1004.28 1004.15 1004.90 1005.09 1005.24 1004.71 1003.89 1002.89 1003.09 1003.86 1003.79 1004.50 1005.44 1006.58 1007.18 1007.97 1008.82
1010.20 1011.03 1012.32 1012.56 1012.68 1011.30 1008.69 1006.89 1006.63 1005.67 1005.88 1005.85 1005.66 1005.15 1004.95 1005.02 1004.12 1004.40 1003.67 1004.38 1005.71 1005.44 1005.43 1006.02 1005.82 1004.99 1004.46 1005.18 1005.21 1004.89 1004.13 1004.78 1004.99 1004.81 1005.03 1004.04 1004.18 1004.60 1004.79 1005.83 1006.65 1007.24 1008.05 1008.84 1009.66
1009.89 1011.04 1012.23 1012.16 1011.02 1009.75 1008.15 1006.96 1006.45 1005.98 1005.74 1006.15 1005.80 1005.57 1005.61 1005.84 1005.47 1005.84 1005.30 1006.66 1006.65 1006.18 1005.75 1006.37 1006.21 1005.08 1004.98 1005.48 1005.10 1004.73 1004.66 1005.05 1005.22 1005.19 1004.59 1004.56 1004.47 1005.06 1006.01 1006.12 1006.42 1006.82 1008.25 1009.30 1010.39
1009.48 1010.06 1011.61 1011.50 1010.23 1008.50 1007.70 1006.91 1006.29 1006.01 1005.75 1005.92 1006.17 1006.06 1006.27 1006.04 1005.79 1005.97 1006.56 1007.11 1007.20 1007.07 1007.49 1007.28 1006.08 1005.24 1005.13 1004.94 1004.45 1005.23 1005.29 1005.67 1005.99 1005.79 1005.07 1004.57 1004.28 1005.32 1005.78 1006.49 1007.23 1007.81 1009.29 1010.26 1011.53
1008.86 1007.61 1007.44 1008.56 1008.84 1007.73 1007.17 1006.48 1005.87 1005.58 1005.73 1005.59 1006.08 1006.39 1006.44 1006.34 1006.18 1005.93 1006.38 1007.12 1007.55 1007.87 1007.64 1007.47 1006.71 1006.31 1006.17 1006.12 1005.88 1005.72 1005.62 1005.81 1005.83 1005.89 1005.84 1005.81 1005.92 1006.08 1007.35 1008.18 1008.95 1010.03 1011.11 1012.06 1013.18
1008.57 1006.82 1006.12 1006.07 1006.77 1007.23 1006.97 1005.92 1005.17 1005.14 1005.04 1005.17 1005.78 1006.16 1006.66 1006.66 1006.32 1005.72 1006.19 1006.53 1006.83 1007.71 1007.44 1007.66 1006.94 1007.13 1006.68 1006.74 1006.70 1006.47 1006.40 1006.34 1006.39 1006.45 1006.59 1006.76 1007.05 1008.35 1009.14 1009.73 1011.13 1012.33 1013.09 1013.83 1014.67
1007.81 1006.77 1005.97 1005.78 1005.60 1006.20 1005.74 1005.16 1004.78 1005.14 1005.31 1005.55 1006.09 1006.22 1006.61 1007.11 1006.56 1006.11 1006.29 1006.74 1007.01 1007.20 1007.52 1007.85 1007.81 1007.67 1006.92 1007.48 1007.42 1007.24 1007.01 1006.96 1006.98 1006.99 1007.42 1007.90 1008.82 1010.09 1011.25 1012.75 1013.81 1014.46 1015.20 1015.89 1016.29
Wind_Speed
13 13 14 13 13 13 12 10 9 7 8 8 11 13 16 17 21 20 19 3 5 6 4 9 10 13 15 16 16 7 11 15 21 21 18 8 6 14 3 10 8 10 13 9 11
14 14 15 15 13 13 12 11 9 8 7 7 8 12 16 17 17 22 3 10 5 6 9 10 10 10 13 14 10 17 15 22 20 14 16 12 12 13 15 12 13 15 13 12 8
13 15 16 16 15 14 13 12 10 9 7 5 7 10 14 19 15 4 7 7 3 9 13 10 10 11 18 15 19 16 22 21 18 12 13 19 19 16 16 18 15 16 13 10 11
14 14 16 18 17 16 14 14 12 11 8 4 6 9 13 11 9 7 7 8 8 10 11 11 11 15 15 19 19 25 23 21 21 18 15 19 19 20 19 17 16 15 13 13 12
15 16 15 17 19 15 14 15 13 11 8 3 4 7 9 11 15 4 11 9 11 11 13 13 14 15 22 16 18 24 22 21 20 17 21 18 21 21 21 18 17 13 13 11 12
16 17 17 16 17 17 14 15 14 12 9 6 1 6 9 19 9 9 7 12 15 15 16 16 16 17 22 24 24 22 18 19 23 19 19 21 22 21 17 15 15 15 12 12 10
18 18 18 18 15 18 15 17 16 13 11 6 1 8 14 21 16 9 15 18 18 20 19 18 16 18 13 20 22 23 30 25 24 21 22 15 23 25 22 17 16 15 13 12 9
19 19 17 17 17 15 16 18 15 14 9 4 3 8 12 10 15 20 20 17 16 16 18 16 15 18 21 21 29 24 23 24 19 26 25 19 23 19 11 16 17 13 12 8 10
20 19 17 16 15 13 16 16 15 12 5 4 7 6 17 5 11 15 18 19 17 16 15 14 16 18 16 19 21 20 22 25 22 19 12 23 17 24 12 9 12 14 9 11 5
22 19 16 16 14 13 20 16 12 8 3 6 7 5 11 14 7 4 4 15 15 13 16 14 10 17 20 17 20 20 26 26 25 19 17 20 21 19 11 16 14 13 13 11 6
24 18 16 16 13 24 21 10 5 3 7 13 9 15 4 4 7 9 9 10 15 14 19 17 17 24 25 27 28 27 25 30 25 17 13 15 20 17 16 18 18 14 14 9 6
20 14 15 15 23 29 17 6 11 7 9 25 25 30 26 20 24 17 8 11 17 20 21 17 20 29 23 22 19 28 28 28 24 23 11 18 22 20 20 19 16 15 11 8 7
16 14 14 16 29 16 11 11 4 8 5 14 23 25 22 21 28 29 20 21 23 21 24 26 24 12 21 16 18 24 27 23 22 26 22 19 24 22 18 18 16 7 11 9 5
13 11 15 27 15 6 7 6 8 4 2 14 9 7 12 16 16 20 26 26 23 27 21 19 21 22 11 17 21 21 24 21 25 21 18 22 17 19 23 10 11 13 12 11 6
9 16 30 28 12 8 11 11 7 4 7 8 6 5 7 19 7 6 8 23 27 21 6 14 15 21 28 27 11 18 19 24 27 23 22 19 11 12 18 19 17 16 12 9 5
19 28 26 4 4 13 18 12 3 4 11 9 6 9 13 18 15 4 3 15 3 1 6 16 3 10 25 16 15 12 14 18 20 18 18 21 19 13 13 17 20 17 12 6 4
23 21 6 4 8 18 15 5 3 9 1 10 10 13 16 14 15 15 10 17 11 7 13 13 17 6 9 15 21 18 8 4 6 9 12 15 13 19 5 7 18 17 13 5 5
15 10 6 3 13 14 6 3 10 10 21 1 5 12 18 15 17 14 17 17 21 16 3 10 8 20 21 20 12 27 19 7 6 5 8 12 7 9 10 18 14 13 9 5 8
9 4 3 5 10 6 5 7 9 7 6 6 8 14 17 16 14 17 22 20 18 18 10 5 10 14 12 17 21 10 24 24 15 16 11 7 11 10 10 9 10 9 5 7 8
4 3 3 5 5 3 3 6 9 6 4 7 10 5 13 15 17 19 17 13 21 20 13 5 3 7 11 9 15 17 14 17 7 7 10 11 16 8 14 11 10 9 7 9 10
4 4 5 5 2 1 6 10 9 8 6 7 9 9 13 9 15 13 7 4 8 10 9 3 4 4 3 10 5 12 10 6 6 9 6 11 3 6 12 11 10 7 8 9 10
5 4 7 6 4 3 9 5 3 9 9 8 7 7 8 9 9 6 9 3 3 6 16 9 6 7 12 4 4 10 10 4 3 6 8 9 1 7 11 10 3 5 5 7 8
4 4 3 2 7 7 10 12 9 9 11 8 8 8 6 12 7 2 6 4 2 5 9 9 8 8 8 8 7 8 6 7 6 5 11 10 2 8 6 5 7 3 7 7 9
5 5 3 3 4 10 18 12 14 13 8 7 3 5 9 10 9 8 7 4 3 3 3 3 6 8 6 3 3 6 9 8 6 5 10 11 9 6 5 11 13 14 8 9 10
4 6 11 8 9 13 13 10 16 10 13 12 6 11 10 6 9 9 10 12 6 4 4 6 7 6 2 2 1 2 5 7 8 8 6 10 11 10 12 13 11 10 9 9 9
3 4 7 5 19 20 13 12 18 16 14 12 8 8 12 5 4 10 9 10 7 6 5 2 3 5 8 4 6 8 9 11 11 11 13 13 11 15 13 13 9 7 8 7 9
6 5 7 7 16 16 14 16 16 11 4 4 7 8 11 6 3 3 3 3 3 9 7 5 4 5 7 2 4 9 6 8 10 10 7 9 10 14 14 12 12 10 8 8 9
Wind_Direction
248 248 246 235 227 228 226 225 237 248 274 302 317 322 316 314 305 280 279 351 56 143 258 250 232 235 237 236 235 235 246 248 255 264 274 307 279 273 295 295 244 231 249 292 316
259 250 251 249 235 223 219 215 213 235 262 293 313 316 313 312 298 286 87 122 113 190 222 225 233 225 232 237 216 232 232 245 265 301 292 282 259 251 275 236 251 252 244 263 261
294 279 261 252 240 227 216 207 206 213 235 271 300 311 311 308 289 48 76 103 172 211 250 237 262 236 243 238 228 239 247 271 275 272 269 279 271 273 267 263 259 267 273 272 268
285 285 288 266 248 232 216 202 198 210 216 234 295 314 311 287 283 82 145 163 180 219 247 236 243 236 249 249 238 251 257 270 276 279 255 253 269 265 265 270 279 280 270 269 265
284 279 275 281 264 245 216 197 193 200 196 211 289 316 302 243 254 241 130 173 196 214 229 234 245 252 259 270 263 257 256 264 271 251 265 261 259 264 263 266 265 267 257 260 257
280 277 275 270 276 251 213 189 187 181 185 191 232 300 263 261 274 264 236 192 224 219 236 247 251 260 275 278 276 274 285 268 265 255 254 256 260 254 247 252 251 250 250 241 243
281 274 268 265 256 266 201 188 175 175 173 172 234 268 257 251 287 253 228 232 228 235 237 242 255 259 270 270 257 275 269 271 250 256 253 256 254 248 252 236 252 239 237 237 233
281 280 270 261 247 249 193 182 166 165 159 158 261 270 265 279 250 248 245 232 249 252 254 261 260 257 257 265 271 268 266 262 257 242 236 233 257 258 220 219 230 228 212 212 235
281 271 263 260 231 232 173 164 155 146 140 185 243 243 275 89 236 253 253 245 248 245 253 263 252 252 244 247 260 250 258 261 256 243 245 214 251 236 176 212 230 228 233 230 205
275 267 253 248 213 182 146 138 128 125 202 220 254 255 235 254 264 255 212 217 234 247 233 234 238 242 228 228 236 249 245 246 248 246 203 229 228 265 221 206 214 231 235 232 210
277 260 246 226 184 141 121 119 124 197 213 217 206 235 147 230 170 243 200 221 213 224 226 214 225 234 243 235 243 255 267 275 283 243 226 239 254 238 213 233 237 224 228 219 199
272 247 231 189 156 154 163 196 207 8 257 220 245 258 253 259 275 252 202 225 215 237 227 228 238 246 257 269 277 275 259 250 265 286 248 252 252 254 240 235 235 230 191 181 167
253 240 197 172 156 169 174 189 80 36 304 276 244 246 247 238 250 257 246 224 246 238 247 235 234 268 247 259 270 270 267 258 254 282 278 262 261 247 237 224 226 207 149 135 152
244 197 169 146 156 149 149 121 116 63 282 271 219 257 213 224 267 255 236 231 233 249 253 257 256 232 231 223 219 250 262 268 277 256 248 238 252 256 209 181 175 154 159 150 124
188 149 141 154 129 167 143 132 105 72 251 248 201 76 154 183 2 167 241 217 228 235 221 226 236 239 230 231 223 255 251 262 239 260 263 245 260 265 164 176 183 158 149 115 89
149 146 140 114 101 135 136 126 111 148 231 203 157 207 200 208 235 276 235 209 313 310 274 263 285 297 245 227 230 271 305 242 251 245 238 241 254 254 176 186 173 143 119 101 58
121 134 143 153 151 140 139 126 142 214 115 213 194 207 223 211 223 231 209 187 188 191 224 225 220 244 241 216 206 225 243 223 221 216 247 228 231 235 164 146 152 132 113 100 44
98 94 36 108 138 145 119 121 223 235 213 29 196 214 230 223 232 222 213 210 214 228 281 221 196 195 194 214 202 203 197 226 215 209 243 276 251 92 43 75 81 82 98 83 42
84 52 81 136 137 143 121 222 193 200 285 215 241 251 248 231 247 213 223 205 204 214 217 237 230 184 187 214 222 211 213 225 268 288 271 175 129 108 116 116 118 102 86 59 36
117 87 113 144 158 144 210 239 213 225 212 203 233 253 265 228 211 232 212 202 209 202 215 303 243 230 164 229 221 220 241 225 203 256 236 208 190 161 162 158 128 99 67 35 15
176 146 146 135 129 211 222 220 231 184 201 225 248 206 249 285 251 244 237 120 174 187 216 260 262 201 173 212 254 218 197 245 236 297 294 263 85 81 150 115 113 96 49 24 6
202 188 152 160 186 209 225 213 308 212 208 228 273 248 246 228 252 226 227 84 42 226 194 191 277 213 210 171 217 277 288 256 269 211 238 282 18 122 111 105 71 51 40 18 7
171 118 145 218 212 198 233 225 216 211 216 211 228 223 215 232 239 211 218 70 120 247 172 170 213 222 192 197 205 240 239 293 306 280 278 288 17 99 133 191 174 343 61 14 15
208 151 148 217 272 233 205 218 212 218 231 217 206 192 223 209 236 190 150 171 172 146 12 297 259 254 277 6 58 187 205 218 205 269 278 273 283 148 336 353 357 31 40 24 24
235 225 171 174 207 232 208 217 213 206 213 204 189 215 200 201 220 192 154 144 162 137 199 221 228 251 333 36 9 273 221 214 241 249 265 290 303 336 18 357 29 12 17 17 20
237 214 189 214 198 210 210 220 212 196 189 197 217 199 192 204 220 175 171 176 163 185 207 198 221 240 226 239 260 266 254 251 261 269 267 278 283 37 355 7 60 47 35 30 24
230 254 235 221 189 197 204 222 208 193 146 225 184 218 168 202 114 106 120 107 160 187 188 194 182 205 234 187 264 253 281 290 279 251 291 278 2 10 27 50 39 43 40 31 31